| time (UTC) | temp F | wind direction | speed MPH | gust MPH | rain 1hr in | rain 24hr in | rain mn in | humidity % | barometer mb |
| 20260505073643 | 62 | 81 | 0.0 | 1.0 | 0.00 | 0.00 | 0.00 | 98 | 1016.6 |
| 20260505072641 | 62 | 99 | 0.0 | 0.0 | 0.00 | 0.00 | 0.00 | 97 | 1016.7 |
| 20260505071640 | 62 | 81 | 0.0 | 0.0 | 0.00 | 0.00 | 0.00 | 97 | 1016.7 |
| 20260505070635 | 63 | 60 | 0.0 | 1.0 | 0.00 | 0.00 | 0.00 | 98 | 1016.9 |
| 20260505065633 | 63 | 90 | 0.0 | 0.0 | 0.00 | 0.00 | 0.00 | 96 | 1016.8 |
| 20260505064632 | 63 | 81 | 0.0 | 1.0 | 0.00 | 0.00 | 0.00 | 96 | 1016.9 |
| 20260505063628 | 63 | 90 | 0.0 | 0.0 | 0.00 | 0.00 | 0.00 | 94 | 1017.1 |
| 20260505062626 | 63 | 105 | 1.0 | 2.0 | 0.00 | 0.00 | 0.00 | 94 | 1017.0 |
| 20260505061626 | 63 | 82 | 0.0 | 2.0 | 0.00 | 0.00 | 0.00 | 94 | 1017.4 |
| 20260505060622 | 63 | 90 | 0.0 | 2.0 | 0.00 | 0.00 | 0.00 | 94 | 1017.3 |
| 20260505055619 | 63 | 74 | 1.0 | 1.0 | 0.00 | 0.00 | 0.00 | 95 | 1017.5 |
| 20260505054619 | 63 | 102 | 2.0 | 2.0 | 0.00 | 0.00 | 0.00 | 94 | 1017.5 |
| 20260505053614 | 64 | 90 | 0.0 | 0.0 | 0.00 | 0.00 | 0.00 | 92 | 1017.6 |
| 20260505052613 | 64 | 90 | 0.0 | 0.0 | 0.00 | 0.00 | 0.00 | 92 | 1017.8 |
| 20260505051614 | 65 | 90 | 0.0 | 1.0 | 0.00 | 0.00 | 0.00 | 90 | 1017.9 |
| 20260505050609 | 65 | 99 | 0.0 | 2.0 | 0.00 | 0.00 | 0.00 | 90 | 1017.8 |
| 20260505041606 | 66 | 90 | 0.0 | 3.0 | 0.00 | 0.00 | 0.00 | 86 | 1018.4 |
| 20260505040601 | 66 | 90 | 0.0 | 0.0 | 0.00 | 0.00 | 0.00 | 84 | 1018.6 |
| 20260505035600 | 67 | 114 | 1.0 | 2.0 | 0.00 | 0.00 | 0.00 | 82 | 1018.5 |
| 20260505034559 | 67 | 90 | 0.0 | 2.0 | 0.00 | 0.00 | 0.00 | 81 | 1018.5 |
| 20260505033558 | 68 | 57 | 2.0 | 3.0 | 0.00 | 0.00 | 0.00 | 81 | 1018.7 |
| 20260505032555 | 68 | 82 | 1.0 | 2.0 | 0.00 | 0.00 | 0.00 | 79 | 1018.8 |
| 20260505031554 | 68 | 90 | 0.0 | 3.0 | 0.00 | 0.00 | 0.00 | 79 | 1018.6 |
| 20260505030553 | 69 | 68 | 2.0 | 3.0 | 0.00 | 0.00 | 0.00 | 78 | 1018.8 |
| 20260505025551 | 69 | 209 | 1.0 | 5.0 | 0.00 | 0.00 | 0.00 | 78 | 1018.8 |
| 20260505024547 | 69 | 120 | 2.0 | 5.0 | 0.00 | 0.00 | 0.00 | 77 | 1018.8 |
| 20260505023547 | 70 | 97 | 0.0 | 6.0 | 0.00 | 0.00 | 0.00 | 76 | 1018.5 |
| 20260505022542 | 70 | 18 | 3.0 | 3.0 | 0.00 | 0.00 | 0.00 | 76 | 1018.5 |
| 20260505021541 | 70 | 96 | 3.0 | 4.0 | 0.00 | 0.00 | 0.00 | 76 | 1018.5 |
| 20260505020538 | 71 | 148 | 2.0 | 3.0 | 0.00 | 0.00 | 0.00 | 75 | 1018.4 |
| 20260505015538 | 71 | 102 | 4.0 | 6.0 | 0.00 | 0.00 | 0.00 | 74 | 1018.2 |
| 20260505014537 | 71 | 70 | 3.0 | 5.0 | 0.00 | 0.00 | 0.00 | 74 | 1018.2 |
| 20260505013537 | 71 | 109 | 3.0 | 5.0 | 0.00 | 0.00 | 0.00 | 72 | 1018.0 |
| 20260505012533 | 71 | 94 | 5.0 | 7.0 | 0.00 | 0.00 | 0.00 | 72 | 1017.8 |
| 20260505011531 | 72 | 120 | 2.0 | 7.0 | 0.00 | 0.00 | 0.00 | 71 | 1017.6 |
| 20260505010529 | 72 | 90 | 4.0 | 5.0 | 0.00 | 0.00 | 0.00 | 70 | 1017.6 |
| 20260505005528 | 72 | 106 | 2.0 | 7.0 | 0.00 | 0.00 | 0.00 | 69 | 1017.6 |
| 20260505004523 | 73 | 90 | 1.0 | 6.0 | 0.00 | 0.00 | 0.00 | 68 | 1017.4 |
| 20260505003522 | 73 | 85 | 3.0 | 3.0 | 0.00 | 0.00 | 0.00 | 68 | 1017.1 |
| 20260505002520 | 74 | 121 | 0.0 | 5.0 | 0.00 | 0.00 | 0.00 | 67 | 1017.2 |
| 20260505001517 | 74 | 154 | 1.0 | 7.0 | 0.00 | 0.00 | 0.00 | 65 | 1017.3 |
| 20260505000517 | 75 | 240 | 1.0 | 4.0 | 0.00 | 0.00 | 0.00 | 64 | 1017.0 |
| 20260504235517 | 75 | 115 | 4.0 | 6.0 | 0.00 | 0.00 | 0.00 | 63 | 1016.8 |
| 20260504234516 | 76 | 137 | 4.0 | 8.0 | 0.00 | 0.00 | 0.00 | 63 | 1016.4 |
| 20260504233514 | 77 | 138 | 3.0 | 4.0 | 0.00 | 0.00 | 0.00 | 61 | 1016.7 |
| 20260504232514 | 77 | 85 | 2.0 | 8.0 | 0.00 | 0.00 | 0.00 | 60 | 1016.7 |
| 20260504231514 | 78 | 93 | 3.0 | 6.0 | 0.00 | 0.00 | 0.00 | 58 | 1016.4 |
| 20260504230513 | 78 | 67 | 2.0 | 8.0 | 0.00 | 0.00 | 0.00 | 58 | 1016.2 |
| 20260504225508 | 79 | 166 | 0.0 | 8.0 | 0.00 | 0.00 | 0.00 | 57 | 1016.5 |
| 20260504224508 | 80 | 90 | 6.0 | 7.0 | 0.00 | 0.00 | 0.00 | 56 | 1016.4 |